Regional Weather Roundup
Issued by NWS

Home | Current Version | Previous Version | Text Only | Print | Product List | Glossary Off
Versions: 1 2 3 4 5 6 7 8 9 10 11 12 13 14 15 16 17 18 19 20 21 22 23 24 25 26 27 28 29 30 31 32 33 34 35 36 37 38 39 40 41 42 43 44 45 46 47 48 49 50

000
ASUS43 KOAX 032010
RWRNE

WEATHER ROUNDUP FOR NEBRASKA
NATIONAL WEATHER SERVICE OMAHA NE
300 PM CDT FRI JUL 03 2015

NOTES: SATELLITE DATA IS BEING USED TO AUGMENT CLOUD COVER ABOVE
       12000 FEET.
       "FAIR" INDICATES FEW OR NO CLOUDS BELOW 12,000 FEET WITH NO
       SIGNIFICANT WEATHER AND/OR OBSTRUCTIONS TO VISIBILITY.

  * THESE STATIONS DO NOT REPORT WEATHER SUCH AS RAIN...SNOW OR FOG.

NEZ001>004-019>022-054>056-032100-
NEBRASKA PANHANDLE

CITY           SKY/WX    TMP DP  RH WIND       PRES   REMARKS
SCOTTSBLUFF    SUNNY     84  54  35 NE7       30.07F
ALLIANCE       MOSUNNY   79  57  46 VRB5      30.08F
CHADRON        SUNNY     82  54  37 VRB3      30.04F
KIMBALL          N/A    N/A N/A N/A MISG        N/A
SIDNEY         MOSUNNY   84  56  38 VRB5      30.11F
$$

NEZ057>060-069>072-079>082-032100-
SOUTHWEST NEBRASKA

CITY           SKY/WX    TMP DP  RH WIND       PRES   REMARKS
NORTH PLATTE   MOSUNNY   82  60  47 VRB3      30.03F
IMPERIAL       PTSUNNY   83  55  38 VRB5      30.06S
LEXINGTON      SUNNY     79  62  56 N5        30.04F
MCCOOK         SUNNY     82  61  48 VRB5      30.03F
OGALLALA       MOSUNNY   82  56  41 N6        30.05F
$$

NEZ005>010-023>029-035>040-094-032100-
NORTH CENTRAL NEBRASKA

CITY           SKY/WX    TMP DP  RH WIND       PRES   REMARKS
VALENTINE      PTSUNNY   81  60  48 CALM      30.02F
AINSWORTH      MOSUNNY   80  59  47 CALM      30.03F
BROKEN BOW     MOSUNNY   82  60  47 CALM      30.03F
O`NEILL        SUNNY     78  63  60 CALM      30.02F
ORD            SUNNY     81  59  47 VRB3      30.00F
THEDFORD       PTSUNNY   81  61  51 E6        30.05S
$$

NEZ041-046>049-061>064-073>077-083>087-032100-
SOUTH CENTRAL NEBRASKA

CITY           SKY/WX    TMP DP  RH WIND       PRES   REMARKS
GRAND ISLAND   CLOUDY    76  60  57 N3        30.04F
AURORA         PTSUNNY   73  62  67 N3        30.03F
HASTINGS       CLOUDY    75  62  64 NE6       30.03F
HEBRON         PTSUNNY   76  61  59 NE6       30.01F
HOLDREGE       MOSUNNY   75  59  57 NE5       30.04F HAZE
KEARNEY *      PTSUNNY   75  61  60 NE3       30.04F
YORK           CLOUDY    72  64  78 N6        30.03F
$$

NEZ011>018-030>034-042>045-032100-
NORTHEAST NEBRASKA

CITY           SKY/WX    TMP DP  RH WIND       PRES   REMARKS
NORFOLK        CLOUDY    74  63  68 SW3       30.01F
ALBION         MOSUNNY   74  60  61 SE3       30.02F
BLAIR          SUNNY     75  53  46 N6        30.00F
COLUMBUS *     PTSUNNY   73  61  64 CALM      30.04F
FREMONT        SUNNY     77  58  52 NW5       30.01S
TEKAMAH        SUNNY     78  54  43 CALM      29.99F
WAYNE          PTSUNNY   75  62  64 CALM      30.00F
$$

NEZ050>053-065>068-078-088>093-032100-
SOUTHEAST NEBRASKA

CITY           SKY/WX    TMP DP  RH WIND       PRES   REMARKS
LINCOLN        CLOUDY    78  61  55 VRB3      30.01F
OMAHA EPPLEY   PTSUNNY   76  55  48 CALM      29.99F
BEATRICE       SUNNY     78  58  49 N6        30.00S
FALLS CITY     SUNNY     79  58  48 NE6       29.98F
NEBRASKA CITY  SUNNY     76  49  38 NE3       30.00S
PLATTSMOUTH    SUNNY     76  52  43 N3        30.00F
$$

NEZ044-045-051>053-067-032100-
OMAHA AREA

CITY           SKY/WX    TMP DP  RH WIND       PRES   REMARKS
OMAHA EPPLEY   PTSUNNY   76  55  48 CALM      29.99F
BLAIR          SUNNY     75  53  46 N6        30.00F
FREMONT        SUNNY     77  58  52 NW5       30.01S
MILLARD        SUNNY     77  53  43 CALM      29.99F
OFFUTT AFB     SUNNY     77  55  46 E5        29.98F
PLATTSMOUTH    SUNNY     76  52  43 N3        30.00F
WAHOO          MOCLDY    76  60  58 CALM      30.00F
$$


USA.gov is the U.S. government's official web portal to all federal, state and local government web resources and services.